Flag for Germany Weather past 2 weeks in Leipzig, Saxony, Germany

Now
59 °F

Passing clouds.


Feels Like: 57 °F
Forecast: 54 / 68 °F
Wind: 10 mph from West

Location: Leipzig-Schkeuditz

Current Time: Sep 2, 2015 at 9:17:49 AM

Latest Report: Sep 2, 2015 at 8:50 AM


Visibility: N/A

Pressure: 30.04 "Hg

Humidity: 88%

Dew point: 55 °F

Location of LeipzigLocation

Historic Weather in Leipzig — Graph

°F

Leipzig temperature yesterday

Maximum temperature yesterday: 82 °F (at 1:20 PM)
Minimum temperature yesterday: 59 °F (at 10:50 PM)
Average temperature yesterday: 71 °F

Past Weeks' High & Low Weather Summary

 TemperatureHumidityPressure
High91 °F (Aug 31, 2:20 PM)100% (Aug 18, 8:20 AM)30.30 "Hg (Aug 18, 8:20 AM)
Low52 °F (Sep 2, 6:20 AM)32% (Aug 22, 4:20 PM)29.68 "Hg (Aug 24, 7:20 PM)
Average67 °F76%30.02 "Hg
* Reported Aug 18 8:20 AM — Sep 2 8:20 AM, Leipzig, Weather by CustomWeather, © 2015

Note: Actual official high and low records may vary slightly from our data, if they occured in-between our weather recording intervals... More about our weather records

Advertising

Leipzig weather history for previous 24 hours

 ConditionsComfort  
Time TempWeatherWind HumidityBarometerVisibility
8:20 AM
Wed, Sep 2
57 °FSunny.9 mph94%30.04 "Hg10 mi
7:50 AM55 °FSunny.9 mph94%30.04 "Hg10 mi
7:20 AM52 °FClear.8 mph100%30.04 "Hg10 mi
6:50 AM52 °FClear.9 mph94%30.01 "Hg10 mi
6:20 AM52 °FClear.8 mph100%30.01 "Hg10 mi
5:50 AM54 °FClear.6 mph100%30.01 "Hg10 mi
5:20 AM54 °FClear.8 mph100%30.01 "Hg10 mi
4:50 AM54 °FClear.10 mph100%30.01 "Hg10 mi
4:20 AM54 °FClear.9 mph100%30.01 "Hg10 mi
3:50 AM54 °FClear.8 mph94%30.01 "Hg10 mi
3:20 AM55 °FClear.7 mph94%30.01 "Hg10 mi
2:50 AM55 °FClear.8 mph94%30.01 "Hg10 mi
2:20 AM57 °FClear.8 mph88%29.98 "Hg10 mi
1:50 AM57 °FPassing clouds.9 mph94%29.98 "HgN/A
1:20 AM59 °FPassing clouds.8 mph88%29.98 "HgN/A
12:50 AM59 °FClear.9 mph88%29.98 "Hg10 mi
11:20 PM
Tue, Sep 1
59 °FClear.10 mph88%29.95 "Hg10 mi
10:50 PM59 °FPassing clouds.13 mph88%29.95 "HgN/A
10:20 PM61 °FPassing clouds.9 mph88%29.92 "HgN/A
9:50 PM61 °FPassing clouds.14 mph94%29.92 "HgN/A
9:20 PM61 °FPartly cloudy.12 mph94%29.92 "HgN/A
8:50 PM61 °FBroken clouds.10 mph94%29.89 "HgN/A
8:20 PM61 °FBroken clouds.14 mph100%29.89 "HgN/A
7:50 PM61 °FSprinkles. Broken clouds.12 mph100%29.86 "HgN/A
7:20 PM61 °FSprinkles. Partly sunny.14 mph100%29.86 "Hg5 mi
6:50 PM63 °FRain showers. Partly sunny.13 mph94%29.86 "Hg5 mi
6:20 PM63 °FSprinkles. Broken clouds.17 mph94%29.83 "HgN/A
5:50 PM64 °FSprinkles. Partly sunny.17 mph88%29.80 "HgN/A
5:20 PM66 °FPartly sunny.21 mph88%29.80 "HgN/A
4:50 PM70 °FThundershowers. Broken clouds.17 mph78%29.77 "HgN/A
4:20 PM77 °FThunderstorms. Partly sunny.15 mph74%29.71 "Hg5 mi
3:50 PM82 °FPartly sunny.3 mph55%29.74 "HgN/A
3:20 PM82 °FScattered clouds.3 mph55%29.74 "HgN/A
2:50 PM82 °FScattered clouds.3 mph55%29.74 "HgN/A
2:20 PM82 °FPassing clouds.5 mph55%29.74 "HgN/A
1:50 PM82 °FPassing clouds.6 mph55%29.74 "HgN/A
1:20 PM82 °FPassing clouds.5 mph55%29.74 "HgN/A
12:50 PM81 °FPassing clouds.3 mph58%29.77 "HgN/A
12:20 PM81 °FPassing clouds.2 mph62%29.77 "HgN/A
11:50 AM79 °FSunny.3 mph61%29.77 "Hg10 mi
11:20 AM77 °FSunny.2 mph65%29.77 "Hg10 mi
10:50 AM77 °FSunny.3 mph61%29.80 "Hg10 mi
10:20 AM75 °FSunny.5 mph69%29.80 "Hg10 mi
9:50 AM75 °FSunny.5 mph69%29.80 "Hg10 mi
9:20 AM73 °FSunny.6 mph69%29.80 "Hg10 mi
Weather by CustomWeather, © 2015

See weather overviewHow to use our weather pages